• Em Portugal
  • Lista de países
  • Para 7 dias
  • Temperatura da água
  • Mapas de satélite
  • Mapa do tempo
  • Widgets de tempo
  • user-avatar
    Iniciar Sessão

    Previsão horária em Corozal

    Hoje, 24 Janeiro, Quarta-feira

    Tempo Temperatura Precipitação Vento Pressão Humidade
    00:00 +23°C° 0 mm 2 m/s 761 mmHg 98%
    01:00 +23°C° 0 mm 2 m/s 761 mmHg 99%
    02:00 +23°C° 0 mm 2 m/s 761 mmHg 99%
    03:00 +23°C° 0 mm 2 m/s 761 mmHg 99%
    04:00 +23°C° 0,1 mm 2 m/s 761 mmHg 99%
    05:00 +23°C° 0,1 mm 2 m/s 761 mmHg 99%
    06:00 +23°C° 0,1 mm 2 m/s 761 mmHg 99%
    07:00 +24°C° 0,4 mm 2 m/s 762 mmHg 96%
    08:00 +25°C° 0,4 mm 2 m/s 762 mmHg 94%
    09:00 +25°C° 0,4 mm 2 m/s 763 mmHg 92%
    10:00 +26°C° 0,8 mm 2 m/s 763 mmHg 88%
    11:00 +27°C° 0,8 mm 2 m/s 762 mmHg 84%
    12:00 +28°C° 0,8 mm 2 m/s 762 mmHg 80%
    13:00 +28°C° 0,9 mm 2 m/s 762 mmHg 81%
    14:00 +28°C° 0,9 mm 2 m/s 761 mmHg 81%
    15:00 +28°C° 0,9 mm 2 m/s 760 mmHg 82%
    16:00 +27°C° 0,3 mm 2 m/s 760 mmHg 86%
    17:00 +26°C° 0,3 mm 2 m/s 761 mmHg 90%
    18:00 +24°C° 0,3 mm 2 m/s 761 mmHg 94%
    19:00 +24°C° 0,1 mm 2 m/s 762 mmHg 95%
    20:00 +24°C° 0,1 mm 2 m/s 762 mmHg 96%
    21:00 +23°C° 0,1 mm 2 m/s 763 mmHg 98%
    22:00 +23°C° 0,1 mm 2 m/s 763 mmHg 98%
    23:00 +23°C° 0,1 mm 2 m/s 763 mmHg 98%

    Amanhã, 25 Janeiro, Quinta-feira

    Tempo Temperatura Precipitação Vento Pressão Humidade
    00:00 +23°C° 0,1 mm 2 m/s 763 mmHg 99%
    01:00 +23°C° 0,2 mm 2 m/s 762 mmHg 99%
    02:00 +23°C° 0,2 mm 2 m/s 762 mmHg 99%
    03:00 +23°C° 0,2 mm 2 m/s 762 mmHg 99%
    04:00 +23°C° 0,3 mm 2 m/s 762 mmHg 98%
    05:00 +22°C° 0,3 mm 3 m/s 762 mmHg 98%
    06:00 +22°C° 0,3 mm 3 m/s 762 mmHg 98%
    07:00 +24°C° 0,1 mm 3 m/s 763 mmHg 96%
    08:00 +24°C° 0,1 mm 3 m/s 763 mmHg 95%
    09:00 +25°C° 0,1 mm 3 m/s 764 mmHg 94%
    10:00 +26°C° 0,3 mm 3 m/s 764 mmHg 88%
    11:00 +27°C° 0,3 mm 3 m/s 763 mmHg 82%
    12:00 +28°C° 0,3 mm 3 m/s 763 mmHg 77%
    13:00 +28°C° 1,2 mm 3 m/s 762 mmHg 80%
    14:00 +27°C° 1,2 mm 3 m/s 762 mmHg 83%
    15:00 +27°C° 1,2 mm 3 m/s 761 mmHg 87%
    16:00 +26°C° 0,5 mm 2 m/s 761 mmHg 90%
    17:00 +25°C° 0,5 mm 2 m/s 761 mmHg 93%
    18:00 +24°C° 0,5 mm 2 m/s 761 mmHg 97%
    19:00 +24°C° 1,3 mm 2 m/s 762 mmHg 97%
    20:00 +23°C° 1,3 mm 2 m/s 762 mmHg 98%
    21:00 +23°C° 1,3 mm 2 m/s 763 mmHg 98%
    22:00 +23°C° 1,2 mm 2 m/s 763 mmHg 98%
    23:00 +23°C° 1,2 mm 2 m/s 763 mmHg 98%

    Depois de amanhã, 26 Janeiro, Sexta-feira

    Tempo Temperatura Precipitação Vento Pressão Humidade
    00:00 +23°C° 1,2 mm 2 m/s 763 mmHg 98%
    01:00 +23°C° 1,6 mm 2 m/s 762 mmHg 98%
    02:00 +22°C° 1,6 mm 3 m/s 762 mmHg 98%
    03:00 +22°C° 1,6 mm 3 m/s 761 mmHg 98%
    04:00 +22°C° 1,6 mm 3 m/s 762 mmHg 98%
    05:00 +22°C° 1,6 mm 3 m/s 762 mmHg 98%
    06:00 +22°C° 1,6 mm 3 m/s 762 mmHg 97%
    07:00 +24°C° 1,3 mm 3 m/s 762 mmHg 97%
    08:00 +24°C° 1,3 mm 3 m/s 763 mmHg 96%
    09:00 +24°C° 1,3 mm 3 m/s 763 mmHg 96%
    10:00 +25°C° 0,9 mm 3 m/s 763 mmHg 94%
    11:00 +25°C° 0,9 mm 3 m/s 763 mmHg 93%
    12:00 +26°C° 0,9 mm 3 m/s 763 mmHg 92%
    13:00 +26°C° 0,6 mm 3 m/s 762 mmHg 91%
    14:00 +26°C° 0,6 mm 3 m/s 761 mmHg 90%
    15:00 +26°C° 0,6 mm 3 m/s 760 mmHg 89%
    16:00 +25°C° 0,5 mm 3 m/s 760 mmHg 92%
    17:00 +25°C° 0,5 mm 2 m/s 760 mmHg 94%
    18:00 +24°C° 0,5 mm 2 m/s 760 mmHg 97%
    19:00 +24°C° 0,2 mm 2 m/s 761 mmHg 97%
    20:00 +23°C° 0,2 mm 2 m/s 761 mmHg 98%
    21:00 +23°C° 0,2 mm 2 m/s 762 mmHg 98%
    22:00 +23°C° 0,2 mm 2 m/s 762 mmHg 98%
    23:00 +23°C° 0,2 mm 2 m/s 761 mmHg 99%

    27 Janeiro, Sábado

    Tempo Temperatura Precipitação Vento Pressão Humidade
    00:00 +23°C° 0,2 mm 2 m/s 761 mmHg 99%
    01:00 +23°C° 0,5 mm 2 m/s 761 mmHg 99%
    02:00 +23°C° 0,5 mm 2 m/s 760 mmHg 99%
    03:00 +23°C° 0,5 mm 2 m/s 760 mmHg 99%
    04:00 +23°C° 1,2 mm 2 m/s 760 mmHg 99%
    05:00 +23°C° 1,2 mm 2 m/s 760 mmHg 99%
    06:00 +23°C° 1,2 mm 2 m/s 760 mmHg 99%
    07:00 +24°C° 1,1 mm 2 m/s 761 mmHg 96%
    08:00 +25°C° 1,1 mm 2 m/s 761 mmHg 94%
    09:00 +26°C° 1,1 mm 2 m/s 761 mmHg 91%
    10:00 +27°C° 1,7 mm 3 m/s 761 mmHg 90%
    11:00 +27°C° 1,7 mm 3 m/s 761 mmHg 89%
    12:00 +28°C° 1,7 mm 3 m/s 760 mmHg 88%
    13:00 +28°C° 0,9 mm 3 m/s 760 mmHg 88%
    14:00 +28°C° 0,9 mm 3 m/s 759 mmHg 87%
    15:00 +28°C° 0,9 mm 3 m/s 758 mmHg 87%
    16:00 +27°C° 0,2 mm 2 m/s 758 mmHg 90%
    17:00 +26°C° 0,2 mm 2 m/s 759 mmHg 93%
    18:00 +25°C° 0,2 mm 1 m/s 759 mmHg 96%
    19:00 +24°C° 0 mm 1 m/s 759 mmHg 96%
    20:00 +24°C° 0 mm 1 m/s 760 mmHg 97%
    21:00 +24°C° 0 mm 1 m/s 760 mmHg 98%
    22:00 +24°C° 0,1 mm 1 m/s 760 mmHg 98%
    23:00 +23°C° 0,1 mm 1 m/s 760 mmHg 98%

    28 Janeiro, Domingo

    Tempo Temperatura Precipitação Vento Pressão Humidade
    00:00 +23°C° 0,1 mm 1 m/s 760 mmHg 99%
    01:00 +23°C° 0 mm 1 m/s 760 mmHg 99%
    02:00 +23°C° 0 mm 1 m/s 759 mmHg 99%
    03:00 +23°C° 0 mm 1 m/s 759 mmHg 99%
    04:00 +23°C° 0 mm 1 m/s 759 mmHg 99%
    05:00 +23°C° 0 mm 1 m/s 760 mmHg 99%
    06:00 +23°C° 0 mm 1 m/s 760 mmHg 99%
    07:00 +24°C° 0 mm 1 m/s 761 mmHg 95%
    08:00 +25°C° 0 mm 1 m/s 761 mmHg 92%
    09:00 +27°C° 0 mm 1 m/s 762 mmHg 88%
    10:00 +28°C° 0,7 mm 1 m/s 761 mmHg 82%
    11:00 +29°C° 0,7 mm 1 m/s 761 mmHg 77%
    12:00 +30°C° 0,7 mm 1 m/s 760 mmHg 71%
    13:00 +30°C° 0,9 mm 2 m/s 760 mmHg 72%
    14:00 +30°C° 0,9 mm 2 m/s 759 mmHg 74%
    15:00 +30°C° 0,9 mm 2 m/s 758 mmHg 75%
    16:00 +28°C° 0,9 mm 2 m/s 759 mmHg 81%
    17:00 +26°C° 0,9 mm 2 m/s 759 mmHg 88%
    18:00 +25°C° 0,9 mm 2 m/s 760 mmHg 94%
    19:00 +24°C° 0,3 mm 2 m/s 760 mmHg 95%
    20:00 +24°C° 0,3 mm 2 m/s 761 mmHg 96%
    21:00 +24°C° 0,3 mm 2 m/s 761 mmHg 97%
    22:00 +23°C° 0,4 mm 2 m/s 761 mmHg 97%
    23:00 +23°C° 0,4 mm 2 m/s 761 mmHg 98%

    29 Janeiro, Segunda-feira

    Tempo Temperatura Precipitação Vento Pressão Humidade
    00:00 +23°C° 0,4 mm 2 m/s 761 mmHg 98%
    01:00 +23°C° 0,3 mm 2 m/s 761 mmHg 98%
    02:00 +23°C° 0,3 mm 2 m/s 761 mmHg 98%
    03:00 +23°C° 0,3 mm 2 m/s 760 mmHg 99%
    04:00 +22°C° 0,7 mm 3 m/s 761 mmHg 99%
    05:00 +22°C° 0,7 mm 3 m/s 761 mmHg 98%
    06:00 +22°C° 0,7 mm 3 m/s 761 mmHg 98%
    07:00 +24°C° 0,7 mm 3 m/s 762 mmHg 96%
    08:00 +24°C° 0,7 mm 3 m/s 763 mmHg 94%
    09:00 +25°C° 0,7 mm 3 m/s 763 mmHg 92%
    10:00 +26°C° 0,7 mm 3 m/s 763 mmHg 90%
    11:00 +27°C° 0,7 mm 3 m/s 763 mmHg 88%
    12:00 +27°C° 0,7 mm 3 m/s 762 mmHg 86%
    13:00 +27°C° 1,1 mm 3 m/s 762 mmHg 88%
    14:00 +27°C° 1,1 mm 3 m/s 761 mmHg 89%
    15:00 +27°C° 1,1 mm 3 m/s 761 mmHg 91%
    16:00 +26°C° 0,8 mm 3 m/s 761 mmHg 93%
    17:00 +25°C° 0,8 mm 3 m/s 761 mmHg 95%
    18:00 +24°C° 0,8 mm 3 m/s 762 mmHg 96%
    19:00 +24°C° 0,8 mm 3 m/s 762 mmHg 97%
    20:00 +22°C° 0,8 mm 3 m/s 763 mmHg 97%
    21:00 +22°C° 0,8 mm 4 m/s 763 mmHg 97%
    22:00 +22°C° 0,2 mm 3 m/s 763 mmHg 97%
    23:00 +22°C° 0,2 mm 3 m/s 763 mmHg 97%
    Mostrar mais